Tracking 32139 objects as of 18-Nov-2025
HD Live streaming from Space Station
objects crossing your sky now

GLOBALSTAR M044

Track GLOBALSTAR M044 now!
10-day predictions
GLOBALSTAR M044 is classified as:


NORAD ID: 25678
Int'l Code: 1999-019C
Perigee: 1,726.9 km
Apogee: 1,736.9 km
Inclination: 52.0 °
Period: 121.0 minutes
Semi major axis: 8102 km
RCS: 2.4818 m2 (large)
Launch date: April 15, 1999
Source: Globalstar (GLOB)
Launch site: TYURATAM MISSILE AND SPACE COMPLEX (TTMTR)
Your satellite tracking list
Your tracking list is empty




NASA's NSSDC Master Catalog

Two Line Element Set (TLE):
1 25678U 99019C   25322.19968589 -.00000067  00000-0  23141-3 0  9993
2 25678  51.9992 338.1302 0006119 337.5684  99.9326 11.90259626189667
Source of the keplerian elements: AFSPC